• In Latvia
  • List of Countries
  • For 7 days
  • Water Temperature
  • Satellite Maps
  • Weather Map
  • Weather Widgets
  • user-avatar
    Login

    Hourly Weather Kalgoorlie

    Today, 21 November, Tuesday

    Time Temperature Precipitation Wind Pressure Humidity
    00:00 +24°C° 0 mm 8 mps 725 mmHg 51%
    01:00 +22°C° 0 mm 8 mps 725 mmHg 57%
    02:00 +21°C° 0 mm 8 mps 726 mmHg 62%
    03:00 +21°C° 0 mm 8 mps 726 mmHg 65%
    04:00 +20°C° 0 mm 8 mps 726 mmHg 67%
    05:00 +20°C° 0 mm 8 mps 726 mmHg 69%
    06:00 +21°C° 0 mm 8 mps 727 mmHg 65%
    07:00 +22°C° 0 mm 8 mps 727 mmHg 61%
    08:00 +22°C° 0 mm 7 mps 728 mmHg 61%
    09:00 +23°C° 0 mm 7 mps 728 mmHg 54%
    10:00 +26°C° 0 mm 6 mps 728 mmHg 48%
    11:00 +28°C° 0 mm 6 mps 728 mmHg 41%
    12:00 +28°C° 0 mm 7 mps 728 mmHg 40%
    13:00 +28°C° 0 mm 8 mps 728 mmHg 39%
    14:00 +29°C° 0 mm 8 mps 728 mmHg 35%
    15:00 +28°C° 0 mm 9 mps 728 mmHg 38%
    16:00 +26°C° 0 mm 10 mps 729 mmHg 41%
    17:00 +24°C° 0 mm 11 mps 729 mmHg 45%
    18:00 +22°C° 0 mm 10 mps 730 mmHg 47%
    19:00 +21°C° 0 mm 10 mps 730 mmHg 49%
    20:00 +18°C° 0 mm 10 mps 731 mmHg 51%
    21:00 +17°C° 0 mm 10 mps 731 mmHg 52%
    22:00 +16°C° 0 mm 9 mps 732 mmHg 52%
    23:00 +15°C° 0 mm 8 mps 732 mmHg 53%

    Tomorrow, 22 November, Wednesday

    Time Temperature Precipitation Wind Pressure Humidity
    00:00 +13°C° 0 mm 8 mps 732 mmHg 55%
    01:00 +12°C° 0 mm 7 mps 732 mmHg 57%
    02:00 +11°C° 0 mm 7 mps 732 mmHg 58%
    03:00 +11°C° 0 mm 7 mps 732 mmHg 61%
    04:00 +10°C° 0 mm 6 mps 732 mmHg 65%
    05:00 +10°C° 0 mm 6 mps 732 mmHg 68%
    06:00 +11°C° 0 mm 6 mps 732 mmHg 60%
    07:00 +14°C° 0 mm 7 mps 732 mmHg 53%
    08:00 +15°C° 0 mm 7 mps 732 mmHg 46%
    09:00 +18°C° 0 mm 7 mps 732 mmHg 38%
    10:00 +21°C° 0 mm 6 mps 732 mmHg 30%
    11:00 +23°C° 0 mm 6 mps 731 mmHg 22%
    12:00 +24°C° 0 mm 6 mps 731 mmHg 20%
    13:00 +27°C° 0 mm 6 mps 730 mmHg 17%
    14:00 +28°C° 0 mm 6 mps 730 mmHg 15%
    15:00 +28°C° 0 mm 6 mps 730 mmHg 15%
    16:00 +28°C° 0 mm 6 mps 730 mmHg 15%
    17:00 +28°C° 0 mm 6 mps 730 mmHg 15%
    18:00 +27°C° 0 mm 7 mps 730 mmHg 19%
    19:00 +26°C° 0 mm 7 mps 731 mmHg 22%
    20:00 +23°C° 0 mm 7 mps 731 mmHg 25%
    21:00 +22°C° 0 mm 7 mps 731 mmHg 32%
    22:00 +20°C° 0 mm 7 mps 732 mmHg 39%
    23:00 +18°C° 0 mm 8 mps 732 mmHg 46%

    Day after tomorrow, 23 November, Thursday

    Time Temperature Precipitation Wind Pressure Humidity
    00:00 +17°C° 0 mm 7 mps 732 mmHg 51%
    01:00 +15°C° 0 mm 7 mps 732 mmHg 56%
    02:00 +14°C° 0 mm 6 mps 731 mmHg 61%
    03:00 +14°C° 0 mm 6 mps 732 mmHg 64%
    04:00 +13°C° 0 mm 5 mps 732 mmHg 66%
    05:00 +13°C° 0 mm 5 mps 732 mmHg 68%
    06:00 +14°C° 0 mm 5 mps 732 mmHg 61%
    07:00 +15°C° 0 mm 5 mps 732 mmHg 53%
    08:00 +17°C° 0 mm 5 mps 732 mmHg 46%
    09:00 +20°C° 0 mm 5 mps 732 mmHg 38%
    10:00 +22°C° 0 mm 5 mps 732 mmHg 31%
    11:00 +25°C° 0 mm 5 mps 731 mmHg 23%
    12:00 +26°C° 0 mm 5 mps 731 mmHg 21%
    13:00 +27°C° 0 mm 5 mps 730 mmHg 19%
    14:00 +29°C° 0 mm 5 mps 729 mmHg 17%
    15:00 +29°C° 0 mm 5 mps 729 mmHg 17%
    16:00 +29°C° 0 mm 5 mps 729 mmHg 16%
    17:00 +29°C° 0 mm 5 mps 728 mmHg 16%
    18:00 +28°C° 0 mm 5 mps 729 mmHg 18%
    19:00 +27°C° 0 mm 5 mps 729 mmHg 20%
    20:00 +25°C° 0 mm 5 mps 729 mmHg 22%
    21:00 +24°C° 0 mm 6 mps 730 mmHg 25%
    22:00 +23°C° 0 mm 6 mps 730 mmHg 28%
    23:00 +22°C° 0 mm 7 mps 730 mmHg 31%

    24 November, Friday

    Time Temperature Precipitation Wind Pressure Humidity
    00:00 +21°C° 0 mm 7 mps 730 mmHg 35%
    01:00 +20°C° 0 mm 7 mps 729 mmHg 39%
    02:00 +18°C° 0 mm 7 mps 729 mmHg 42%
    03:00 +17°C° 0 mm 6 mps 729 mmHg 46%
    04:00 +17°C° 0 mm 6 mps 729 mmHg 49%
    05:00 +16°C° 0 mm 6 mps 729 mmHg 53%
    06:00 +17°C° 0 mm 6 mps 729 mmHg 49%
    07:00 +20°C° 0 mm 6 mps 729 mmHg 44%
    08:00 +22°C° 0 mm 6 mps 729 mmHg 40%
    09:00 +24°C° 0 mm 6 mps 729 mmHg 34%
    10:00 +27°C° 0 mm 5 mps 729 mmHg 28%
    11:00 +29°C° 0 mm 5 mps 728 mmHg 22%
    12:00 +30°C° 0 mm 4 mps 728 mmHg 20%
    13:00 +32°C° 0 mm 4 mps 727 mmHg 17%
    14:00 +31°C° 0 mm 3 mps 727 mmHg 15%
    15:00 +33°C° 0 mm 3 mps 726 mmHg 14%
    16:00 +33°C° 0 mm 3 mps 726 mmHg 14%
    17:00 +33°C° 0 mm 3 mps 726 mmHg 13%
    18:00 +31°C° 0 mm 3 mps 726 mmHg 14%
    19:00 +30°C° 0 mm 4 mps 727 mmHg 14%
    20:00 +29°C° 0 mm 5 mps 727 mmHg 14%
    21:00 +29°C° 0 mm 6 mps 726 mmHg 14%
    22:00 +28°C° 0 mm 7 mps 726 mmHg 14%
    23:00 +28°C° 0 mm 8 mps 726 mmHg 14%

    25 November, Saturday

    Time Temperature Precipitation Wind Pressure Humidity
    00:00 +27°C° 0 mm 8 mps 725 mmHg 15%
    01:00 +26°C° 0 mm 8 mps 725 mmHg 17%
    02:00 +26°C° 0 mm 8 mps 724 mmHg 19%
    03:00 +26°C° 0 mm 7 mps 724 mmHg 20%
    04:00 +24°C° 0 mm 7 mps 724 mmHg 21%
    05:00 +24°C° 0 mm 6 mps 725 mmHg 23%
    06:00 +26°C° 0 mm 6 mps 725 mmHg 22%
    07:00 +28°C° 0 mm 7 mps 725 mmHg 21%
    08:00 +29°C° 0 mm 7 mps 726 mmHg 20%
    09:00 +32°C° 0 mm 7 mps 725 mmHg 18%
    10:00 +34°C° 0 mm 7 mps 725 mmHg 16%
    11:00 +36°C° 0 mm 7 mps 724 mmHg 14%
    12:00 +38°C° 0 mm 6 mps 724 mmHg 14%
    13:00 +39°C° 0 mm 6 mps 723 mmHg 13%
    14:00 +40°C° 0 mm 5 mps 722 mmHg 12%
    15:00 +39°C° 0 mm 6 mps 722 mmHg 14%
    16:00 +38°C° 0 mm 6 mps 722 mmHg 15%
    17:00 +38°C° 0 mm 6 mps 722 mmHg 16%
    18:00 +35°C° 0 mm 6 mps 723 mmHg 18%
    19:00 +34°C° 0 mm 7 mps 723 mmHg 21%
    20:00 +32°C° 0 mm 7 mps 724 mmHg 23%
    21:00 +29°C° 0 mm 7 mps 724 mmHg 29%
    22:00 +28°C° 0 mm 7 mps 724 mmHg 34%
    23:00 +26°C° 0 mm 7 mps 725 mmHg 40%

    26 November, Sunday

    Time Temperature Precipitation Wind Pressure Humidity
    00:00 +24°C° 0 mm 7 mps 724 mmHg 41%
    01:00 +23°C° 0 mm 7 mps 724 mmHg 43%
    02:00 +23°C° 0 mm 7 mps 724 mmHg 45%
    03:00 +22°C° 0.1 mm 6 mps 724 mmHg 46%
    04:00 +22°C° 0.1 mm 6 mps 725 mmHg 47%
    05:00 +22°C° 0.1 mm 6 mps 725 mmHg 47%
    06:00 +24°C° 0 mm 7 mps 725 mmHg 41%
    07:00 +27°C° 0 mm 8 mps 726 mmHg 35%
    08:00 +31°C° 0 mm 9 mps 726 mmHg 29%
    09:00 +33°C° 0 mm 9 mps 726 mmHg 26%
    10:00 +34°C° 0 mm 9 mps 725 mmHg 23%
    11:00 +37°C° 0 mm 10 mps 725 mmHg 21%
    12:00 +38°C° 0 mm 9 mps 724 mmHg 19%
    13:00 +39°C° 0 mm 9 mps 723 mmHg 18%
    14:00 +40°C° 0 mm 9 mps 723 mmHg 16%
    15:00 +40°C° 0 mm 8 mps 722 mmHg 16%
    16:00 +40°C° 0 mm 8 mps 722 mmHg 16%
    17:00 +40°C° 0 mm 7 mps 722 mmHg 15%
    18:00 +38°C° 0 mm 7 mps 722 mmHg 17%
    19:00 +36°C° 0 mm 7 mps 722 mmHg 19%
    20:00 +35°C° 0 mm 7 mps 722 mmHg 21%
    21:00 +34°C° 0 mm 8 mps 722 mmHg 22%
    22:00 +34°C° 0 mm 9 mps 722 mmHg 23%
    23:00 +33°C° 0 mm 9 mps 722 mmHg 24%
    Show more